Time,TemperatureF,DewpointF,PressureIn,WindDirection,WindDirectionDegrees,WindSpeedMPH,WindSpeedGustMPH,Humidity,HourlyPrecipIn,Conditions,Clouds,dailyrainin,SoftwareType,DateUTC
2013-06-11 00:00:00,59.5,57.5,29.82,WNW,291,3.0,4.0,93,0.00,,,0.00,VWS V15.00,2013-06-11 05:00:00,
2013-06-11 00:03:00,57.6,56.2,29.81,WNW,291,2.0,3.0,95,0.00,,,0.00,VWS V14.01,2013-06-11 05:03:00,
2013-06-11 00:09:00,57.5,56.4,29.81,WNW,291,2.0,3.0,96,0.00,,,0.00,VWS V14.01,2013-06-11 05:09:00,
2013-06-11 00:14:00,57.3,55.9,29.81,WNW,291,2.0,3.0,95,0.00,,,0.00,VWS V14.01,2013-06-11 05:14:00,
2013-06-11 00:15:00,58.7,57.0,29.82,WNW,291,3.0,4.0,94,0.00,,,0.00,VWS V15.00,2013-06-11 05:15:00,
2013-06-11 00:19:00,57.0,55.6,29.81,WNW,291,7.0,7.0,95,0.00,,,0.00,VWS V14.01,2013-06-11 05:19:00,
2013-06-11 00:24:00,56.7,55.6,29.81,West,268,3.0,9.0,96,0.00,,,0.00,VWS V14.01,2013-06-11 05:24:00,
2013-06-11 00:29:00,56.9,55.8,29.81,West,268,3.0,9.0,96,0.00,,,0.00,VWS V14.01,2013-06-11 05:29:00,
2013-06-11 00:30:00,58.6,57.2,29.81,WNW,291,2.0,4.0,95,0.00,,,0.00,VWS V15.00,2013-06-11 05:30:00,
2013-06-11 00:34:00,56.7,55.6,29.81,West,268,3.0,3.0,96,0.00,,,0.00,VWS V14.01,2013-06-11 05:34:00,
2013-06-11 00:39:00,56.7,55.6,29.81,West,268,3.0,4.0,96,0.00,,,0.00,VWS V14.01,2013-06-11 05:39:00,
2013-06-11 00:44:00,56.6,55.5,29.81,West,268,3.0,4.0,96,0.00,,SCT110,0.00,VWS V14.01,2013-06-11 05:44:00,
2013-06-11 00:45:00,58.0,56.6,29.81,WNW,291,2.0,3.0,95,0.00,,,0.00,VWS V15.00,2013-06-11 05:45:00,
2013-06-11 00:49:00,56.3,55.2,29.81,West,268,3.0,4.0,96,0.00,,SCT110,0.00,VWS V14.01,2013-06-11 05:49:00,
2013-06-11 00:54:00,56.2,55.1,29.81,West,268,4.0,5.0,96,0.00,,SCT110,0.00,VWS V14.01,2013-06-11 05:54:00,
2013-06-11 00:59:00,56.2,55.1,29.81,West,268,4.0,5.0,96,0.00,,SCT110,0.00,VWS V14.01,2013-06-11 05:59:00,
2013-06-11 01:00:00,57.6,56.2,29.81,WNW,291,2.0,3.0,95,0.00,,,0.00,VWS V15.00,2013-06-11 06:00:00,
2013-06-11 01:04:00,56.3,55.5,29.82,West,268,4.0,5.0,97,0.00,,BKN120,0.00,VWS V14.01,2013-06-11 06:04:00,
2013-06-11 01:09:00,56.3,55.5,29.82,West,268,4.0,5.0,97,0.00,,BKN120,0.00,VWS V14.01,2013-06-11 06:09:00,
2013-06-11 01:14:00,56.0,54.9,29.82,West,268,3.0,5.0,96,0.00,,BKN120,0.00,VWS V14.01,2013-06-11 06:14:00,
2013-06-11 01:15:00,57.0,55.6,29.81,WNW,291,6.0,6.0,95,0.00,,,0.00,VWS V15.00,2013-06-11 06:15:00,
2013-06-11 01:19:00,55.9,55.1,29.82,West,268,3.0,4.0,97,0.00,,BKN120,0.00,VWS V14.01,2013-06-11 06:19:00,
2013-06-11 01:25:00,55.9,55.1,29.82,West,268,2.0,4.0,97,0.00,,BKN120,0.00,VWS V14.01,2013-06-11 06:25:00,
2013-06-11 01:30:00,55.7,54.9,29.82,West,268,2.0,4.0,97,0.00,,BKN120,0.00,VWS V14.01,2013-06-11 06:30:00,
2013-06-11 01:35:00,55.7,54.9,29.82,West,268,2.0,3.0,97,0.00,,,0.00,VWS V14.01,2013-06-11 06:35:00,
2013-06-11 01:40:00,55.6,54.8,29.82,West,268,2.0,3.0,97,0.00,,,0.00,VWS V14.01,2013-06-11 06:40:00,
2013-06-11 01:45:00,55.6,54.8,29.82,West,268,2.0,3.0,97,0.00,,,0.00,VWS V14.01,2013-06-11 06:45:00,
2013-06-11 01:50:00,55.7,55.2,29.82,West,268,2.0,3.0,98,0.00,,,0.00,VWS V14.01,2013-06-11 06:50:00,
2013-06-11 01:55:00,55.7,55.2,29.82,West,268,2.0,3.0,98,0.00,,,0.00,VWS V14.01,2013-06-11 06:55:00,
2013-06-11 02:00:00,55.7,55.2,29.82,West,268,3.0,3.0,98,0.00,,,0.00,VWS V14.01,2013-06-11 07:00:00,
2013-06-11 02:05:00,55.4,54.6,29.82,West,268,4.0,4.0,97,0.00,,,0.00,VWS V14.01,2013-06-11 07:05:00,
2013-06-11 02:10:00,55.3,54.5,29.82,West,268,4.0,4.0,97,0.00,,,0.00,VWS V14.01,2013-06-11 07:10:00,
2013-06-11 02:15:00,55.3,54.8,29.82,West,268,4.0,5.0,98,0.00,,,0.00,VWS V14.01,2013-06-11 07:15:00,
2013-06-11 02:20:00,55.3,54.8,29.82,West,268,4.0,4.0,98,0.00,,,0.00,VWS V14.01,2013-06-11 07:20:00,
2013-06-11 02:25:00,55.1,54.5,29.82,West,268,3.0,4.0,98,0.00,,,0.00,VWS V14.01,2013-06-11 07:25:00,
2013-06-11 02:30:00,55.0,54.5,29.82,West,268,4.0,4.0,98,0.00,,,0.00,VWS V14.01,2013-06-11 07:30:00,
2013-06-11 02:36:00,54.7,53.9,29.82,West,268,4.0,4.0,97,0.00,,,0.00,VWS V14.01,2013-06-11 07:36:00,
2013-06-11 02:41:00,54.7,54.2,29.82,West,268,3.0,4.0,98,0.00,,,0.00,VWS V14.01,2013-06-11 07:41:00,
2013-06-11 02:45:00,55.6,54.8,29.82,West,268,2.0,3.0,97,0.00,,,0.00,VWS V15.00,2013-06-11 07:45:00,
2013-06-11 02:46:00,54.5,54.0,29.82,West,268,4.0,4.0,98,0.00,,,0.00,VWS V14.01,2013-06-11 07:46:00,
2013-06-11 02:51:00,54.5,54.0,29.82,West,268,5.0,5.0,98,0.00,,,0.00,VWS V14.01,2013-06-11 07:51:00,
2013-06-11 02:56:00,54.4,53.8,29.82,West,268,4.0,5.0,98,0.00,,,0.00,VWS V14.01,2013-06-11 07:56:00,
2013-06-11 03:00:00,55.7,55.2,29.82,West,268,3.0,3.0,98,0.00,,OVC016,0.00,VWS V15.00,2013-06-11 08:00:00,
2013-06-11 03:01:00,54.2,53.7,29.82,West,268,3.0,5.0,98,0.00,,,0.00,VWS V14.01,2013-06-11 08:01:00,
2013-06-11 03:06:00,54.2,53.7,29.82,West,268,4.0,4.0,98,0.00,,,0.00,VWS V14.01,2013-06-11 08:06:00,
2013-06-11 03:11:00,54.1,53.5,29.82,West,268,4.0,5.0,98,0.00,,,0.00,VWS V14.01,2013-06-11 08:11:00,
2013-06-11 03:15:00,55.3,54.8,29.82,West,268,3.0,5.0,98,0.00,,,0.00,VWS V15.00,2013-06-11 08:15:00,
2013-06-11 03:16:00,53.9,53.3,29.81,West,268,3.0,5.0,98,0.00,,,0.00,VWS V14.01,2013-06-11 08:16:00,
2013-06-11 03:21:00,53.8,53.2,29.81,West,268,1.0,2.0,98,0.00,,,0.00,VWS V14.01,2013-06-11 08:21:00,
2013-06-11 03:26:00,53.6,53.0,29.81,West,268,2.0,2.0,98,0.00,,,0.00,VWS V14.01,2013-06-11 08:26:00,
2013-06-11 03:30:00,55.0,54.5,29.82,West,268,3.0,5.0,98,0.00,,,0.00,VWS V15.00,2013-06-11 08:30:00,
2013-06-11 03:32:00,53.5,53.0,29.81,West,268,3.0,3.0,98,0.00,,,0.00,VWS V14.01,2013-06-11 08:32:00,
2013-06-11 03:37:00,53.3,52.8,29.81,West,268,3.0,4.0,98,0.00,,,0.00,VWS V14.01,2013-06-11 08:37:00,
2013-06-11 03:42:00,53.3,52.8,29.81,West,268,4.0,4.0,98,0.00,,SCT120,0.00,VWS V14.01,2013-06-11 08:42:00,
2013-06-11 03:45:00,54.5,54.0,29.82,West,268,4.0,5.0,98,0.00,,,0.00,VWS V15.00,2013-06-11 08:45:00,
2013-06-11 03:47:00,53.6,53.0,29.82,West,268,2.0,3.0,98,0.00,,SCT120,0.00,VWS V14.01,2013-06-11 08:47:00,
2013-06-11 03:52:00,53.6,53.0,29.82,West,268,2.0,3.0,98,0.00,,SCT120,0.00,VWS V14.01,2013-06-11 08:52:00,
2013-06-11 03:58:00,53.3,52.8,29.82,West,268,2.0,3.0,98,0.00,,SCT120,0.00,VWS V14.01,2013-06-11 08:58:00,
2013-06-11 04:00:00,54.2,53.7,29.82,West,268,4.0,5.0,98,0.00,,,0.00,VWS V15.00,2013-06-11 09:00:00,
2013-06-11 04:03:00,53.1,52.5,29.82,West,268,2.0,2.0,98,0.00,,SCT120,0.00,VWS V14.01,2013-06-11 09:03:00,
2013-06-11 04:08:00,52.9,52.3,29.82,West,268,3.0,3.0,98,0.00,,SCT120,0.00,VWS V14.01,2013-06-11 09:08:00,
2013-06-11 04:13:00,53.1,52.5,29.82,West,268,3.0,3.0,98,0.00,,SCT120,0.00,VWS V14.01,2013-06-11 09:13:00,
2013-06-11 04:15:00,53.9,53.3,29.81,West,268,2.0,5.0,98,0.00,,,0.00,VWS V15.00,2013-06-11 09:15:00,
2013-06-11 04:18:00,52.9,52.3,29.81,West,268,3.0,3.0,98,0.00,,SCT120,0.00,VWS V14.01,2013-06-11 09:18:00,
2013-06-11 04:23:00,52.9,52.3,29.81,West,268,4.0,4.0,98,0.00,,SCT120,0.00,VWS V14.01,2013-06-11 09:23:00,
2013-06-11 04:28:00,52.8,52.2,29.81,West,268,4.0,5.0,98,0.00,,SCT120,0.00,VWS V14.01,2013-06-11 09:28:00,
2013-06-11 04:30:00,53.5,53.0,29.81,West,268,3.0,3.0,98,0.00,,,0.00,VWS V15.00,2013-06-11 09:30:00,
2013-06-11 04:33:00,52.6,52.0,29.82,West,268,3.0,4.0,98,0.00,,SCT120,0.00,VWS V14.01,2013-06-11 09:33:00,
2013-06-11 04:38:00,52.5,52.0,29.82,West,268,4.0,4.0,98,0.00,,SCT120,0.00,VWS V14.01,2013-06-11 09:38:00,
2013-06-11 04:43:00,52.3,51.8,29.82,West,268,4.0,4.0,98,0.00,,,0.00,VWS V14.01,2013-06-11 09:43:00,
2013-06-11 04:45:00,53.6,53.0,29.82,West,268,2.0,4.0,98,0.00,,,0.00,VWS V15.00,2013-06-11 09:45:00,
2013-06-11 04:48:00,52.3,51.8,29.82,West,268,4.0,4.0,98,0.00,,,0.00,VWS V14.01,2013-06-11 09:48:00,
2013-06-11 04:53:00,52.2,51.7,29.82,West,268,4.0,5.0,98,0.00,,,0.00,VWS V14.01,2013-06-11 09:53:00,
2013-06-11 04:58:00,52.0,51.5,29.82,West,268,3.0,5.0,98,0.00,,,0.00,VWS V14.01,2013-06-11 09:58:00,
2013-06-11 05:00:00,53.1,52.5,29.82,West,268,2.0,3.0,98,0.00,,,0.00,VWS V15.00,2013-06-11 10:00:00,
2013-06-11 05:03:00,51.9,51.4,29.82,West,268,4.0,5.0,98,0.00,,,0.00,VWS V14.01,2013-06-11 10:03:00,
2013-06-11 05:08:00,51.9,51.4,29.82,West,268,3.0,5.0,98,0.00,,,0.00,VWS V14.01,2013-06-11 10:08:00,
2013-06-11 05:13:00,51.9,51.6,29.82,West,268,2.0,5.0,99,0.00,,,0.00,VWS V14.01,2013-06-11 10:13:00,
2013-06-11 05:15:00,53.1,52.5,29.81,West,268,2.0,3.0,98,0.00,,,0.00,VWS V15.00,2013-06-11 10:15:00,
2013-06-11 05:18:00,51.9,51.6,29.83,West,268,1.0,2.0,99,0.00,,,0.00,VWS V14.01,2013-06-11 10:18:00,
2013-06-11 05:23:00,52.0,51.7,29.83,West,268,0.0,2.0,99,0.00,,,0.00,VWS V14.01,2013-06-11 10:23:00,
2013-06-11 05:28:00,51.7,51.2,29.83,West,268,0.0,2.0,98,0.00,,,0.00,VWS V14.01,2013-06-11 10:28:00,
2013-06-11 05:30:00,52.6,52.0,29.82,West,268,4.0,5.0,98,0.00,,,0.00,VWS V15.00,2013-06-11 10:30:00,
2013-06-11 05:34:00,51.6,51.1,29.83,West,268,4.0,4.0,98,0.00,,,0.00,VWS V14.01,2013-06-11 10:34:00,
2013-06-11 05:39:00,51.3,50.8,29.83,West,268,6.0,7.0,98,0.00,,,0.00,VWS V14.01,2013-06-11 10:39:00,
2013-06-11 05:44:00,51.1,50.6,29.83,West,268,3.0,7.0,98,0.00,,,0.00,VWS V14.01,2013-06-11 10:44:00,
2013-06-11 05:45:00,52.3,51.8,29.82,West,268,3.0,4.0,98,0.00,,,0.00,VWS V15.00,2013-06-11 10:45:00,
2013-06-11 05:49:00,51.6,51.3,29.84,West,268,0.0,1.0,99,0.00,,,0.00,VWS V14.01,2013-06-11 10:49:00,
2013-06-11 05:54:00,51.6,51.3,29.84,West,268,0.0,1.0,99,0.00,,,0.00,VWS V14.01,2013-06-11 10:54:00,
2013-06-11 05:59:00,51.6,51.3,29.84,West,268,0.0,1.0,99,0.00,,,0.00,VWS V14.01,2013-06-11 10:59:00,
2013-06-11 06:00:00,51.9,51.3,29.82,West,268,4.0,5.0,98,0.00,,,0.00,VWS V15.00,2013-06-11 11:00:00,
2013-06-11 06:04:00,51.6,51.3,29.84,West,268,0.0,0.0,99,0.00,,,0.00,VWS V14.01,2013-06-11 11:04:00,
2013-06-11 06:09:00,51.9,51.6,29.84,West,268,0.0,0.0,99,0.00,,,0.00,VWS V14.01,2013-06-11 11:09:00,
2013-06-11 06:14:00,51.9,51.6,29.84,West,268,0.0,0.0,99,0.00,,,0.00,VWS V14.01,2013-06-11 11:14:00,
2013-06-11 06:15:00,51.9,51.6,29.83,West,268,1.0,5.0,99,0.00,,,0.00,VWS V15.00,2013-06-11 11:15:00,
2013-06-11 06:19:00,51.9,51.6,29.85,West,268,0.0,0.0,99,0.00,,,0.00,VWS V14.01,2013-06-11 11:19:00,
2013-06-11 06:24:00,51.9,51.6,29.85,West,268,0.0,0.0,99,0.00,,,0.00,VWS V14.01,2013-06-11 11:24:00,
2013-06-11 06:29:00,51.6,51.3,29.85,West,268,0.0,0.0,99,0.00,,,0.00,VWS V14.01,2013-06-11 11:29:00,
2013-06-11 06:30:00,51.6,51.1,29.83,West,268,0.0,2.0,98,0.00,,,0.00,VWS V15.00,2013-06-11 11:30:00,
2013-06-11 06:35:00,51.7,51.4,29.84,West,268,0.0,0.0,99,0.00,,,0.00,VWS V14.01,2013-06-11 11:35:00,
2013-06-11 06:40:00,51.9,51.6,29.84,West,268,0.0,0.0,99,0.00,,,0.00,VWS V14.01,2013-06-11 11:40:00,
2013-06-11 06:45:00,52.2,51.9,29.84,West,268,0.0,0.0,99,0.00,,,0.00,VWS V14.01,2013-06-11 11:45:00,
2013-06-11 06:50:00,52.5,52.2,29.85,West,268,0.0,0.0,99,0.00,,,0.00,VWS V14.01,2013-06-11 11:50:00,
2013-06-11 06:55:00,52.8,52.5,29.85,West,268,0.0,0.0,99,0.00,,,0.00,VWS V14.01,2013-06-11 11:55:00,
2013-06-11 07:00:00,52.9,52.6,29.85,West,268,0.0,0.0,99,0.00,,,0.00,VWS V14.01,2013-06-11 12:00:00,
2013-06-11 07:05:00,53.6,53.3,29.83,West,268,0.0,0.0,99,0.00,,,0.00,VWS V14.01,2013-06-11 12:05:00,
2013-06-11 07:10:00,54.1,54.1,29.83,West,268,0.0,0.0,100,0.00,,,0.00,VWS V14.01,2013-06-11 12:10:00,
2013-06-11 07:15:00,54.5,54.5,29.83,West,268,0.0,0.0,100,0.00,,,0.00,VWS V14.01,2013-06-11 12:15:00,
2013-06-11 07:20:00,55.1,55.1,29.83,West,268,0.0,0.0,100,0.00,,,0.00,VWS V14.01,2013-06-11 12:20:00,
2013-06-11 07:25:00,55.6,55.6,29.83,West,268,0.0,0.0,100,0.00,,,0.00,VWS V14.01,2013-06-11 12:25:00,
2013-06-11 07:30:00,51.6,51.3,29.84,West,268,0.0,0.0,99,0.00,,,0.00,VWS V15.00,2013-06-11 12:30:00,
2013-06-11 07:31:00,56.6,56.6,29.83,West,268,3.0,5.0,100,0.00,,,0.00,VWS V14.01,2013-06-11 12:31:00,
2013-06-11 07:37:00,57.5,57.5,29.83,West,268,5.0,6.0,100,0.00,,SCT110,0.00,VWS V14.01,2013-06-11 12:37:00,
2013-06-11 07:42:00,60.4,60.4,29.83,WSW,255,6.0,9.0,100,0.00,,SCT110,0.00,VWS V14.01,2013-06-11 12:42:00,
2013-06-11 07:45:00,52.3,52.0,29.85,West,268,0.0,0.0,99,0.00,,,0.00,VWS V15.00,2013-06-11 12:45:00,
2013-06-11 07:47:00,61.2,61.2,29.83,WSW,255,3.0,4.0,100,0.00,,SCT110,0.00,VWS V14.01,2013-06-11 12:47:00,
2013-06-11 07:52:00,61.8,61.8,29.83,WSW,255,4.0,6.0,100,0.00,,SCT110,0.00,VWS V14.01,2013-06-11 12:52:00,
2013-06-11 07:57:00,62.3,62.3,29.83,WSW,255,0.0,6.0,100,0.00,,SCT110,0.00,VWS V14.01,2013-06-11 12:57:00,
2013-06-11 08:00:00,53.2,52.9,29.83,West,268,0.0,0.0,99,0.00,,,0.00,VWS V15.00,2013-06-11 13:00:00,
2013-06-11 08:02:00,62.1,62.1,29.82,WSW,255,4.0,4.0,100,0.00,,,0.00,VWS V14.01,2013-06-11 13:02:00,
2013-06-11 08:08:00,62.1,62.1,29.82,WSW,255,3.0,5.0,100,0.00,,,0.00,VWS V14.01,2013-06-11 13:08:00,
2013-06-11 08:13:00,62.3,62.3,29.82,WSW,255,0.0,5.0,100,0.00,,,0.00,VWS V14.01,2013-06-11 13:13:00,
2013-06-11 08:15:00,54.7,54.7,29.83,West,268,0.0,0.0,100,0.00,,,0.00,VWS V15.00,2013-06-11 13:15:00,
2013-06-11 08:18:00,62.6,62.3,29.83,WSW,255,0.0,0.0,99,0.00,,,0.00,VWS V14.01,2013-06-11 13:18:00,
2013-06-11 08:23:00,62.9,62.6,29.83,WSW,255,1.0,1.0,99,0.00,,,0.00,VWS V14.01,2013-06-11 13:23:00,
2013-06-11 08:28:00,62.9,62.6,29.83,WSW,255,0.0,2.0,99,0.00,,,0.00,VWS V14.01,2013-06-11 13:28:00,
2013-06-11 08:30:00,56.7,56.7,29.83,West,268,5.0,5.0,100,0.00,,,0.00,VWS V15.00,2013-06-11 13:30:00,
2013-06-11 08:33:00,63.1,62.8,29.82,WSW,255,2.0,3.0,99,0.00,,,0.00,VWS V14.01,2013-06-11 13:33:00,
2013-06-11 08:38:00,63.7,63.4,29.82,WSW,255,5.0,5.0,99,0.00,,,0.00,VWS V14.01,2013-06-11 13:38:00,
2013-06-11 08:43:00,64.2,63.9,29.82,WSW,255,5.0,5.0,99,0.00,,CLR,0.00,VWS V14.01,2013-06-11 13:43:00,
2013-06-11 08:45:00,61.2,61.2,29.83,WSW,255,4.0,9.0,100,0.00,,,0.00,VWS V15.00,2013-06-11 13:45:00,
2013-06-11 08:48:00,64.5,63.6,29.82,WSW,255,3.0,4.0,97,0.00,,CLR,0.00,VWS V14.01,2013-06-11 13:48:00,
2013-06-11 08:53:00,65.2,64.0,29.82,WSW,255,3.0,4.0,96,0.00,,CLR,0.00,VWS V14.01,2013-06-11 13:53:00,
2013-06-11 08:59:00,65.5,64.0,29.82,WSW,255,2.0,4.0,95,0.00,,CLR,0.00,VWS V14.01,2013-06-11 13:59:00,
2013-06-11 09:00:00,62.1,62.1,29.82,WSW,255,4.0,6.0,100,0.00,,,0.00,VWS V15.00,2013-06-11 14:00:00,
2013-06-11 09:04:00,65.8,63.7,29.81,WSW,255,4.0,4.0,93,0.00,,CLR,0.00,VWS V14.01,2013-06-11 14:04:00,
2013-06-11 09:09:00,66.4,63.4,29.81,WSW,255,3.0,4.0,90,0.00,,CLR,0.00,VWS V14.01,2013-06-11 14:09:00,
2013-06-11 09:14:00,66.8,63.1,29.81,WSW,255,6.0,6.0,88,0.00,,CLR,0.00,VWS V14.01,2013-06-11 14:14:00,
2013-06-11 09:15:00,62.6,62.3,29.83,WSW,255,0.0,5.0,99,0.00,,,0.00,VWS V15.00,2013-06-11 14:15:00,
2013-06-11 09:19:00,67.6,63.6,29.83,WSW,255,6.0,7.0,87,0.00,,CLR,0.00,VWS V14.01,2013-06-11 14:19:00,
2013-06-11 09:24:00,68.3,63.6,29.83,WSW,251,9.0,10.0,85,0.00,,CLR,0.00,VWS V14.01,2013-06-11 14:24:00,
2013-06-11 09:29:00,69.3,63.9,29.83,WSW,244,8.0,10.0,83,0.00,,CLR,0.00,VWS V14.01,2013-06-11 14:29:00,
2013-06-11 09:30:00,62.9,62.6,29.82,WSW,255,2.0,3.0,99,0.00,,,0.00,VWS V15.00,2013-06-11 14:30:00,
2013-06-11 09:34:00,69.9,63.8,29.83,SW,230,7.0,11.0,81,0.00,,CLR,0.00,VWS V14.01,2013-06-11 14:34:00,
2013-06-11 09:39:00,69.9,63.8,29.83,SW,225,8.0,11.0,81,0.00,,CLR,0.00,VWS V14.01,2013-06-11 14:39:00,
2013-06-11 09:44:00,70.3,63.8,29.83,SW,225,2.0,11.0,80,0.00,,CLR,0.00,VWS V14.01,2013-06-11 14:44:00,
2013-06-11 09:45:00,64.3,63.7,29.82,WSW,255,3.0,5.0,98,0.00,,,0.00,VWS V15.00,2013-06-11 14:45:00,
2013-06-11 09:49:00,70.4,64.3,29.84,SW,225,3.0,7.0,81,0.00,,CLR,0.00,VWS V14.01,2013-06-11 14:49:00,
2013-06-11 09:54:00,70.8,64.0,29.84,SW,225,4.0,8.0,79,0.00,,CLR,0.00,VWS V14.01,2013-06-11 14:54:00,
2013-06-11 09:59:00,70.9,64.1,29.84,SW,225,8.0,11.0,79,0.00,,CLR,0.00,VWS V14.01,2013-06-11 14:59:00,
2013-06-11 10:00:00,65.6,63.8,29.81,WSW,255,3.0,4.0,94,0.00,,,0.00,VWS V15.00,2013-06-11 15:00:00,
2013-06-11 10:04:00,71.1,63.9,29.84,SW,226,5.0,5.0,78,0.00,,CLR,0.00,VWS V14.01,2013-06-11 15:04:00,
2013-06-11 10:09:00,70.9,63.7,29.84,SW,227,6.0,10.0,78,0.00,,CLR,0.00,VWS V14.01,2013-06-11 15:09:00,
2013-06-11 10:14:00,70.9,64.1,29.84,SW,227,6.0,10.0,79,0.00,,CLR,0.00,VWS V14.01,2013-06-11 15:14:00,
2013-06-11 10:15:00,67.4,63.4,29.83,WSW,255,5.0,6.0,87,0.00,,,0.00,VWS V15.00,2013-06-11 15:15:00,
2013-06-11 10:20:00,71.1,63.5,29.84,SW,229,7.0,8.0,77,0.00,,CLR,0.00,VWS V14.01,2013-06-11 15:20:00,
2013-06-11 10:25:00,71.1,63.9,29.84,SW,232,2.0,8.0,78,0.00,,CLR,0.00,VWS V14.01,2013-06-11 15:25:00,
2013-06-11 10:30:00,71.5,64.7,29.84,SW,232,4.0,8.0,79,0.00,,CLR,0.00,VWS V14.01,2013-06-11 15:30:00,
2013-06-11 10:35:00,71.6,64.0,29.83,SW,232,2.0,6.0,77,0.00,,SCT012,0.00,VWS V14.01,2013-06-11 15:35:00,
2013-06-11 10:40:00,72.3,65.1,29.83,SW,232,4.0,6.0,78,0.00,,SCT012,0.00,VWS V14.01,2013-06-11 15:40:00,
2013-06-11 10:45:00,72.8,64.4,29.83,SW,232,2.0,6.0,75,0.00,,SCT012,0.00,VWS V14.01,2013-06-11 15:45:00,
2013-06-11 10:50:00,72.7,64.3,29.82,SW,232,3.0,3.0,75,0.00,,SCT012,0.00,VWS V14.01,2013-06-11 15:50:00,
2013-06-11 10:56:00,72.5,64.1,29.82,SW,232,4.0,6.0,75,0.00,,SCT012,0.00,VWS V14.01,2013-06-11 15:56:00,
2013-06-11 11:00:00,70.9,63.7,29.84,SW,226,4.0,11.0,78,0.00,,,0.00,VWS V15.00,2013-06-11 16:00:00,
2013-06-11 11:01:00,72.7,64.7,29.82,WSW,241,5.0,7.0,76,0.00,,SCT012,0.00,VWS V14.01,2013-06-11 16:01:00,
2013-06-11 11:06:00,72.8,64.4,29.82,WSW,241,3.0,4.0,75,0.00,,CLR,0.00,VWS V14.01,2013-06-11 16:06:00,
2013-06-11 11:11:00,72.8,64.0,29.82,WSW,241,5.0,5.0,74,0.00,,CLR,0.00,VWS V14.01,2013-06-11 16:11:00,
2013-06-11 11:15:00,70.9,63.3,29.84,SW,228,5.0,10.0,77,0.00,,,0.00,VWS V15.00,2013-06-11 16:15:00,
2013-06-11 11:16:00,73.2,64.4,29.82,WSW,241,3.0,6.0,74,0.00,,CLR,0.00,VWS V14.01,2013-06-11 16:16:00,
2013-06-11 11:21:00,74.2,64.6,29.83,WSW,241,4.0,7.0,72,0.00,,CLR,0.00,VWS V14.01,2013-06-11 16:21:00,
2013-06-11 11:26:00,74.4,64.0,29.83,WSW,241,1.0,7.0,70,0.00,,CLR,0.00,VWS V14.01,2013-06-11 16:26:00,
2013-06-11 11:30:00,71.5,64.3,29.83,SW,232,3.0,8.0,78,0.00,,,0.00,VWS V15.00,2013-06-11 16:30:00,
2013-06-11 11:31:00,74.9,64.5,29.82,WSW,241,4.0,7.0,70,0.00,,CLR,0.00,VWS V14.01,2013-06-11 16:31:00,
2013-06-11 11:36:00,75.6,64.7,29.82,WSW,241,3.0,4.0,69,0.00,,SCT014,0.00,VWS V14.01,2013-06-11 16:36:00,
2013-06-11 11:41:00,76.3,64.1,29.82,WSW,243,4.0,6.0,66,0.00,,SCT014,0.00,VWS V14.01,2013-06-11 16:41:00,
2013-06-11 11:45:00,72.8,64.4,29.82,SW,232,0.0,6.0,75,0.00,,,0.00,VWS V15.00,2013-06-11 16:45:00,
2013-06-11 11:46:00,76.7,64.9,29.82,WSW,243,3.0,6.0,67,0.00,,SCT014,0.00,VWS V14.01,2013-06-11 16:46:00,
2013-06-11 11:52:00,76.8,65.4,29.82,WSW,258,3.0,7.0,68,0.00,,SCT014,0.00,VWS V14.01,2013-06-11 16:52:00,
2013-06-11 11:57:00,77.9,66.9,29.82,WSW,258,0.0,7.0,69,0.00,,SCT014,0.00,VWS V14.01,2013-06-11 16:57:00,
2013-06-11 12:00:00,72.7,64.7,29.82,WSW,241,3.0,7.0,76,0.00,,,0.00,VWS V15.00,2013-06-11 17:00:00,
2013-06-11 12:02:00,78.8,65.2,29.81,WSW,258,3.0,4.0,63,0.00,,SCT014,0.00,VWS V14.01,2013-06-11 17:02:00,
2013-06-11 12:08:00,79.2,65.5,29.81,WSW,258,2.0,4.0,63,0.00,,SCT014,0.00,VWS V14.01,2013-06-11 17:08:00,
2013-06-11 12:13:00,77.9,64.3,29.81,West,259,5.0,5.0,63,0.00,,SCT014,0.00,VWS V14.01,2013-06-11 17:13:00,
2013-06-11 12:15:00,73.5,64.7,29.83,WSW,241,2.0,6.0,74,0.00,,,0.00,VWS V15.00,2013-06-11 17:15:00,
2013-06-11 12:18:00,77.6,65.8,29.80,West,260,0.0,2.0,67,0.00,,SCT014,0.00,VWS V14.01,2013-06-11 17:18:00,
2013-06-11 12:23:00,77.2,64.1,29.80,West,260,0.0,2.0,64,0.00,,SCT014,0.00,VWS V14.01,2013-06-11 17:23:00,
2013-06-11 12:28:00,77.0,64.3,29.80,West,260,2.0,3.0,65,0.00,,SCT014,0.00,VWS V14.01,2013-06-11 17:28:00,
2013-06-11 12:30:00,75.1,64.7,29.82,WSW,241,4.0,7.0,70,0.00,,,0.00,VWS V15.00,2013-06-11 17:30:00,
2013-06-11 12:33:00,76.8,64.2,29.81,West,260,1.0,3.0,65,0.00,,SCT014,0.00,VWS V14.01,2013-06-11 17:33:00,
2013-06-11 12:38:00,77.2,66.2,29.81,West,260,0.0,3.0,69,0.00,,SCT014,0.00,VWS V14.01,2013-06-11 17:38:00,
2013-06-11 12:43:00,78.3,64.2,29.81,West,260,0.0,3.0,62,0.00,,SCT016,0.00,VWS V14.01,2013-06-11 17:43:00,
2013-06-11 12:45:00,76.7,65.3,29.82,WSW,243,4.0,6.0,68,0.00,,,0.00,VWS V15.00,2013-06-11 17:45:00,
2013-06-11 12:48:00,78.6,65.0,29.81,West,260,0.0,1.0,63,0.00,,SCT016,0.00,VWS V14.01,2013-06-11 17:48:00,
2013-06-11 12:53:00,79.4,65.7,29.81,West,260,4.0,5.0,63,0.00,,SCT016,0.00,VWS V14.01,2013-06-11 17:53:00,
2013-06-11 12:58:00,79.0,64.9,29.81,West,260,1.0,5.0,62,0.00,,SCT016,0.00,VWS V14.01,2013-06-11 17:58:00,
2013-06-11 13:00:00,78.8,65.2,29.81,West,259,4.0,7.0,63,0.00,,,0.00,VWS V15.00,2013-06-11 18:00:00,
2013-06-11 13:03:00,79.4,64.3,29.80,West,260,0.0,2.0,60,0.00,,CLR,0.00,VWS V14.01,2013-06-11 18:03:00,
2013-06-11 13:08:00,80.3,65.2,29.80,West,260,0.0,2.0,60,0.00,,CLR,0.00,VWS V14.01,2013-06-11 18:08:00,
2013-06-11 13:13:00,80.9,65.7,29.80,West,259,1.0,6.0,60,0.00,,CLR,0.00,VWS V14.01,2013-06-11 18:13:00,
2013-06-11 13:15:00,77.6,66.2,29.80,West,260,2.0,5.0,68,0.00,,,0.00,VWS V15.00,2013-06-11 18:15:00,
2013-06-11 13:18:00,80.3,64.2,29.79,West,259,4.0,4.0,58,0.00,,CLR,0.00,VWS V14.01,2013-06-11 18:18:00,
2013-06-11 13:23:00,81.1,65.4,29.79,West,259,4.0,6.0,59,0.00,,CLR,0.00,VWS V14.01,2013-06-11 18:23:00,
2013-06-11 13:28:00,80.7,64.6,29.79,West,259,3.0,6.0,58,0.00,,CLR,0.00,VWS V14.01,2013-06-11 18:28:00,
2013-06-11 13:30:00,76.8,64.2,29.81,West,260,3.0,6.0,65,0.00,,,0.00,VWS V15.00,2013-06-11 18:30:00,
2013-06-11 13:33:00,81.1,66.4,29.79,West,259,0.0,4.0,61,0.00,,CLR,0.00,VWS V14.01,2013-06-11 18:33:00,
2013-06-11 13:38:00,81.6,63.9,29.79,West,259,3.0,4.0,55,0.00,,CLR,0.00,VWS V14.01,2013-06-11 18:38:00,
2013-06-11 13:43:00,81.4,66.7,29.79,West,259,2.0,4.0,61,0.00,,BKN024,0.00,VWS V14.01,2013-06-11 18:43:00,
2013-06-11 13:45:00,78.6,65.0,29.81,West,260,1.0,4.0,63,0.00,,,0.00,VWS V15.00,2013-06-11 18:45:00,
2013-06-11 13:48:00,80.7,64.1,29.79,West,259,0.0,0.0,57,0.00,,BKN024,0.00,VWS V14.01,2013-06-11 18:48:00,
2013-06-11 13:54:00,79.9,64.3,29.79,West,259,1.0,4.0,59,0.00,,BKN024,0.00,VWS V14.01,2013-06-11 18:54:00,
2013-06-11 13:59:00,79.0,63.5,29.79,West,259,0.0,4.0,59,0.00,,BKN024,0.00,VWS V14.01,2013-06-11 18:59:00,
2013-06-11 14:00:00,79.0,63.9,29.80,West,260,1.0,5.0,60,0.00,,,0.00,VWS V15.00,2013-06-11 19:00:00,
2013-06-11 14:04:00,79.2,64.1,29.81,West,259,5.0,6.0,60,0.00,,SCT028,0.00,VWS V14.01,2013-06-11 19:04:00,
2013-06-11 14:09:00,78.6,64.0,29.81,WSW,250,3.0,10.0,61,0.00,,SCT028,0.00,VWS V14.01,2013-06-11 19:09:00,
2013-06-11 14:14:00,78.3,64.2,29.81,WSW,255,2.0,12.0,62,0.00,,SCT028,0.00,VWS V14.01,2013-06-11 19:14:00,
2013-06-11 14:15:00,80.5,64.4,29.79,West,259,4.0,6.0,58,0.00,,,0.00,VWS V15.00,2013-06-11 19:15:00,
2013-06-11 14:19:00,77.9,63.8,29.82,WSW,256,4.0,6.0,62,0.00,,SCT028,0.00,VWS V14.01,2013-06-11 19:19:00,
2013-06-11 14:24:00,77.7,64.6,29.82,WSW,256,2.0,6.0,64,0.00,,SCT028,0.00,VWS V14.01,2013-06-11 19:24:00,
2013-06-11 14:29:00,77.9,64.8,29.82,WSW,256,4.0,6.0,64,0.00,,SCT028,0.00,VWS V14.01,2013-06-11 19:29:00,
2013-06-11 14:30:00,80.9,65.7,29.79,West,259,4.0,6.0,60,0.00,,,0.00,VWS V15.00,2013-06-11 19:30:00,
2013-06-11 14:34:00,78.1,66.3,29.81,WSW,256,4.0,5.0,67,0.00,,OVC030,0.00,VWS V14.01,2013-06-11 19:34:00,
2013-06-11 14:39:00,77.7,65.4,29.81,WSW,256,4.0,5.0,66,0.00,,OVC030,0.00,VWS V14.01,2013-06-11 19:39:00,
2013-06-11 14:44:00,77.6,65.3,29.81,West,269,4.0,9.0,66,0.00,,OVC030,0.00,VWS V14.01,2013-06-11 19:44:00,
2013-06-11 14:45:00,81.1,66.4,29.79,West,259,0.0,4.0,61,0.00,,,0.00,VWS V15.00,2013-06-11 19:45:00,
2013-06-11 14:49:00,77.6,64.9,29.81,West,270,4.0,5.0,65,0.00,,OVC030,0.00,VWS V14.01,2013-06-11 19:49:00,
2013-06-11 14:54:00,77.9,64.8,29.81,West,270,4.0,6.0,64,0.00,,OVC030,0.00,VWS V14.01,2013-06-11 19:54:00,
2013-06-11 14:59:00,77.7,64.6,29.81,West,270,2.0,6.0,64,0.00,,OVC030,0.00,VWS V14.01,2013-06-11 19:59:00,
2013-06-11 15:00:00,79.2,65.1,29.81,West,259,3.0,4.0,62,0.00,,,0.00,VWS V15.00,2013-06-11 20:00:00,
2013-06-11 15:04:00,77.9,66.5,29.79,West,270,3.0,3.0,68,0.00,,SCT065,0.00,VWS V14.01,2013-06-11 20:04:00,
2013-06-11 15:10:00,77.7,65.0,29.79,West,270,3.0,4.0,65,0.00,,SCT065,0.00,VWS V14.01,2013-06-11 20:10:00,
2013-06-11 15:15:00,77.9,65.2,29.79,West,270,0.0,4.0,65,0.00,,SCT065,0.00,VWS V14.01,2013-06-11 20:15:00,
2013-06-11 15:20:00,77.7,64.1,29.79,West,270,0.0,0.0,63,0.00,,SCT065,0.00,VWS V14.01,2013-06-11 20:20:00,
2013-06-11 15:25:00,77.7,66.3,29.79,West,270,0.0,0.0,68,0.00,,SCT065,0.00,VWS V14.01,2013-06-11 20:25:00,
2013-06-11 15:30:00,77.4,64.7,29.79,West,270,0.0,0.0,65,0.00,,SCT065,0.00,VWS V14.01,2013-06-11 20:30:00,
2013-06-11 15:35:00,77.0,66.1,29.79,West,270,0.0,0.0,69,0.00,,SCT036,0.00,VWS V14.01,2013-06-11 20:35:00,
2013-06-11 15:40:00,76.8,65.9,29.79,West,270,0.0,0.0,69,0.00,,SCT036,0.00,VWS V14.01,2013-06-11 20:40:00,
2013-06-11 15:45:00,76.7,65.8,29.79,West,270,3.0,4.0,69,0.00,,SCT036,0.00,VWS V14.01,2013-06-11 20:45:00,
2013-06-11 15:50:00,76.5,66.4,29.81,West,270,4.0,4.0,71,0.00,,SCT036,0.00,VWS V14.01,2013-06-11 20:50:00,
2013-06-11 15:55:00,76.5,66.8,29.81,West,270,0.0,4.0,72,0.00,,SCT036,0.00,VWS V14.01,2013-06-11 20:55:00,
2013-06-11 16:00:00,76.5,65.6,29.81,West,270,0.0,4.0,69,0.00,,SCT036,0.00,VWS V14.01,2013-06-11 21:00:00,
2013-06-11 16:05:00,76.5,66.0,29.79,West,270,0.0,0.0,70,0.00,,SCT038,0.00,VWS V14.01,2013-06-11 21:05:00,
2013-06-11 16:10:00,76.5,66.0,29.79,West,270,0.0,0.0,70,0.00,,SCT038,0.00,VWS V14.01,2013-06-11 21:10:00,
2013-06-11 16:15:00,77.9,65.2,29.79,West,270,0.0,4.0,65,0.00,,,0.00,VWS V15.00,2013-06-11 21:15:00,
2013-06-11 16:16:00,77.7,66.7,29.79,West,270,5.0,5.0,69,0.00,,SCT038,0.00,VWS V14.01,2013-06-11 21:16:00,
2013-06-11 16:21:00,78.1,65.8,29.81,West,270,0.0,5.0,66,0.00,,SCT038,0.00,VWS V14.01,2013-06-11 21:21:00,
2013-06-11 16:26:00,77.6,66.2,29.81,West,270,2.0,6.0,68,0.00,,SCT038,0.00,VWS V14.01,2013-06-11 21:26:00,
2013-06-11 16:30:00,77.2,65.8,29.79,West,270,0.0,0.0,68,0.00,,,0.00,VWS V15.00,2013-06-11 21:30:00,
2013-06-11 16:31:00,77.0,65.2,29.81,West,270,2.0,6.0,67,0.00,,SCT038,0.00,VWS V14.01,2013-06-11 21:31:00,
2013-06-11 16:36:00,76.5,65.6,29.81,West,270,5.0,6.0,69,0.00,,SCT038,0.00,VWS V14.01,2013-06-11 21:36:00,
2013-06-11 16:41:00,76.0,65.5,29.81,West,270,4.0,6.0,70,0.00,,CLR,0.00,VWS V14.01,2013-06-11 21:41:00,
2013-06-11 16:45:00,76.5,65.6,29.81,West,270,4.0,5.0,69,0.00,,,0.00,VWS V15.00,2013-06-11 21:45:00,
2013-06-11 16:46:00,75.6,65.5,29.81,West,270,4.0,7.0,71,0.00,,CLR,0.00,VWS V14.01,2013-06-11 21:46:00,
2013-06-11 16:51:00,75.4,64.9,29.82,West,270,2.0,3.0,70,0.00,,CLR,0.00,VWS V14.01,2013-06-11 21:51:00,
2013-06-11 16:56:00,75.3,65.7,29.82,West,270,0.0,3.0,72,0.00,,CLR,0.00,VWS V14.01,2013-06-11 21:56:00,
2013-06-11 17:00:00,76.5,65.2,29.79,West,270,0.0,4.0,68,0.00,,,0.00,VWS V15.00,2013-06-11 22:00:00,
2013-06-11 17:02:00,75.1,65.1,29.81,West,270,0.0,3.0,71,0.00,,CLR,0.00,VWS V14.01,2013-06-11 22:02:00,
2013-06-11 17:08:00,75.4,65.3,29.81,West,270,0.0,0.0,71,0.00,,CLR,0.00,VWS V14.01,2013-06-11 22:08:00,
2013-06-11 17:13:00,75.3,65.3,29.81,SSW,211,7.0,11.0,71,0.00,,CLR,0.00,VWS V14.01,2013-06-11 22:13:00,
2013-06-11 17:15:00,77.9,66.5,29.81,West,270,5.0,6.0,68,0.00,,,0.00,VWS V15.00,2013-06-11 22:15:00,
2013-06-11 17:18:00,74.9,65.7,29.81,SSW,210,0.0,0.0,73,0.00,,CLR,0.00,VWS V14.01,2013-06-11 22:18:00,
2013-06-11 17:23:00,74.6,65.0,29.81,SSW,208,10.0,10.0,72,0.00,,CLR,0.00,VWS V14.01,2013-06-11 22:23:00,
2013-06-11 17:28:00,74.2,65.4,29.81,SSW,206,7.0,10.0,74,0.00,,CLR,0.00,VWS V14.01,2013-06-11 22:28:00,
2013-06-11 17:30:00,76.8,65.0,29.81,West,270,2.0,6.0,67,0.00,,,0.00,VWS V15.00,2013-06-11 22:30:00,
2013-06-11 17:33:00,74.0,65.2,29.80,SSW,206,9.0,9.0,74,0.00,,CLR,0.00,VWS V14.01,2013-06-11 22:33:00,
2013-06-11 17:38:00,73.9,65.1,29.80,SSW,206,3.0,9.0,74,0.00,,CLR,0.00,VWS V14.01,2013-06-11 22:38:00,
2013-06-11 17:43:00,73.9,65.9,29.80,SSW,206,4.0,9.0,76,0.00,,CLR,0.00,VWS V14.01,2013-06-11 22:43:00,
2013-06-11 17:45:00,75.6,65.5,29.82,West,270,1.0,7.0,71,0.00,,,0.00,VWS V15.00,2013-06-11 22:45:00,
2013-06-11 17:48:00,73.5,66.2,29.80,SSW,206,1.0,4.0,78,0.00,,CLR,0.00,VWS V14.01,2013-06-11 22:48:00,
2013-06-11 17:53:00,73.3,66.0,29.80,SSW,206,5.0,8.0,78,0.00,,CLR,0.00,VWS V14.01,2013-06-11 22:53:00,
2013-06-11 17:58:00,73.5,65.9,29.80,SSW,209,5.0,9.0,77,0.00,,CLR,0.00,VWS V14.01,2013-06-11 22:58:00,
2013-06-11 18:00:00,75.1,65.1,29.81,West,270,0.0,3.0,71,0.00,,,0.00,VWS V15.00,2013-06-11 23:00:00,
2013-06-11 18:04:00,73.7,65.3,29.83,SW,225,9.0,11.0,75,0.00,,CLR,0.00,VWS V14.01,2013-06-11 23:04:00,
2013-06-11 18:09:00,73.7,65.3,29.83,SW,225,6.0,11.0,75,0.00,,CLR,0.00,VWS V14.01,2013-06-11 23:09:00,
2013-06-11 18:14:00,73.7,65.3,29.83,SW,225,6.0,11.0,75,0.00,,CLR,0.00,VWS V14.01,2013-06-11 23:14:00,
2013-06-11 18:15:00,75.1,65.5,29.81,SSW,210,0.0,11.0,72,0.00,,,0.00,VWS V15.00,2013-06-11 23:15:00,
2013-06-11 18:19:00,73.7,65.3,29.82,SW,225,7.0,9.0,75,0.00,,CLR,0.00,VWS V14.01,2013-06-11 23:19:00,
2013-06-11 18:24:00,73.9,66.2,29.82,SW,225,0.0,10.0,77,0.00,,CLR,0.00,VWS V14.01,2013-06-11 23:24:00,
2013-06-11 18:29:00,74.6,66.2,29.82,SW,223,8.0,10.0,75,0.00,,CLR,0.00,VWS V14.01,2013-06-11 23:29:00,
2013-06-11 18:30:00,74.0,65.2,29.80,SSW,206,7.0,10.0,74,0.00,,,0.00,VWS V15.00,2013-06-11 23:30:00,
2013-06-11 18:34:00,75.3,66.4,29.83,SW,222,2.0,11.0,74,0.00,,CLR,0.00,VWS V14.01,2013-06-11 23:34:00,
2013-06-11 18:39:00,75.6,66.3,29.83,SW,220,10.0,12.0,73,0.00,,CLR,0.00,VWS V14.01,2013-06-11 23:39:00,
2013-06-11 18:45:00,75.6,66.3,29.83,SW,225,7.0,12.0,73,0.00,,CLR,0.00,VWS V14.01,2013-06-11 23:45:00,
2013-06-11 18:50:00,75.3,66.1,29.83,SW,225,9.0,10.0,73,0.00,,CLR,0.00,VWS V14.01,2013-06-11 23:50:00,
2013-06-11 18:55:00,74.7,65.9,29.83,SW,227,7.0,11.0,74,0.00,,CLR,0.00,VWS V14.01,2013-06-11 23:55:00,
2013-06-11 19:00:00,74.4,66.0,29.83,SW,230,2.0,11.0,75,0.00,,CLR,0.00,VWS V14.01,2013-06-12 00:00:00,
2013-06-11 19:05:00,74.2,65.8,29.83,SW,230,0.0,7.0,75,0.00,,CLR,0.00,VWS V14.01,2013-06-12 00:05:00,
2013-06-11 19:10:00,74.4,66.0,29.83,SW,232,7.0,9.0,75,0.00,,CLR,0.00,VWS V14.01,2013-06-12 00:10:00,
2013-06-11 19:15:00,74.6,66.2,29.83,SW,234,7.0,10.0,75,0.00,,CLR,0.00,VWS V14.01,2013-06-12 00:15:00,
2013-06-11 19:20:00,74.6,65.8,29.83,SW,236,10.0,13.0,74,0.00,,CLR,0.00,VWS V14.01,2013-06-12 00:20:00,
2013-06-11 19:25:00,74.4,65.6,29.83,WSW,238,4.0,13.0,74,0.00,,CLR,0.00,VWS V14.01,2013-06-12 00:25:00,
2013-06-11 19:30:00,74.2,65.8,29.83,WSW,257,12.0,13.0,75,0.00,,CLR,0.00,VWS V14.01,2013-06-12 00:30:00,
2013-06-11 19:35:00,73.9,65.5,29.83,WSW,256,2.0,9.0,75,0.00,,CLR,0.00,VWS V14.01,2013-06-12 00:35:00,
2013-06-11 19:40:00,73.7,65.7,29.83,WSW,255,3.0,9.0,76,0.00,,CLR,0.00,VWS V14.01,2013-06-12 00:40:00,
2013-06-11 19:45:00,75.4,65.8,29.83,SW,225,4.0,12.0,72,0.00,,,0.00,VWS V15.00,2013-06-12 00:45:00,
2013-06-11 19:46:00,73.5,65.5,29.83,WSW,255,0.0,9.0,76,0.00,,CLR,0.00,VWS V14.01,2013-06-12 00:46:00,
2013-06-11 19:51:00,73.3,65.7,29.82,WSW,255,0.0,0.0,77,0.00,,CLR,0.00,VWS V14.01,2013-06-12 00:51:00,
2013-06-11 19:56:00,73.3,65.7,29.82,WSW,255,0.0,0.0,77,0.00,,CLR,0.00,VWS V14.01,2013-06-12 00:56:00,
2013-06-11 20:00:00,74.2,65.8,29.83,SW,230,2.0,11.0,75,0.00,,,0.00,VWS V15.00,2013-06-12 01:00:00,
2013-06-11 20:01:00,73.3,65.7,29.82,WSW,255,0.0,0.0,77,0.00,,CLR,0.00,VWS V14.01,2013-06-12 01:01:00,
2013-06-11 20:06:00,73.3,65.3,29.82,WSW,255,0.0,0.0,76,0.00,,CLR,0.00,VWS V14.01,2013-06-12 01:06:00,
2013-06-11 20:11:00,73.3,65.3,29.82,WSW,255,0.0,0.0,76,0.00,,CLR,0.00,VWS V14.01,2013-06-12 01:11:00,
2013-06-11 20:15:00,74.6,66.2,29.83,SW,234,3.0,10.0,75,0.00,,,0.00,VWS V15.00,2013-06-12 01:15:00,
2013-06-11 20:16:00,73.2,64.8,29.82,WSW,255,0.0,0.0,75,0.00,,CLR,0.00,VWS V14.01,2013-06-12 01:16:00,
2013-06-11 20:21:00,72.8,64.8,29.81,WSW,255,0.0,0.0,76,0.00,,CLR,0.00,VWS V14.01,2013-06-12 01:21:00,
2013-06-11 20:26:00,72.3,64.3,29.81,WSW,255,0.0,0.0,76,0.00,,CLR,0.00,VWS V14.01,2013-06-12 01:26:00,
2013-06-11 20:30:00,74.0,65.6,29.83,WSW,255,4.0,13.0,75,0.00,,,0.00,VWS V15.00,2013-06-12 01:30:00,
2013-06-11 20:31:00,71.8,63.5,29.81,WSW,255,0.0,0.0,75,0.00,,CLR,0.00,VWS V14.01,2013-06-12 01:31:00,
2013-06-11 20:36:00,71.5,64.3,29.81,WSW,255,0.0,0.0,78,0.00,,CLR,0.00,VWS V14.01,2013-06-12 01:36:00,
2013-06-11 20:41:00,70.9,64.1,29.81,WSW,255,0.0,0.0,79,0.00,,CLR,0.00,VWS V14.01,2013-06-12 01:41:00,
2013-06-11 20:45:00,73.5,65.9,29.82,WSW,255,0.0,9.0,77,0.00,,,0.00,VWS V15.00,2013-06-12 01:45:00,
2013-06-11 20:47:00,70.3,63.5,29.81,WSW,255,0.0,0.0,79,0.00,,CLR,0.00,VWS V14.01,2013-06-12 01:47:00,
2013-06-11 20:53:00,69.6,63.9,29.81,WSW,255,0.0,0.0,82,0.00,,CLR,0.00,VWS V14.01,2013-06-12 01:53:00,
2013-06-11 20:58:00,69.3,63.9,29.81,WSW,255,0.0,0.0,83,0.00,,CLR,0.00,VWS V14.01,2013-06-12 01:58:00,
2013-06-11 21:00:00,73.3,65.7,29.82,WSW,255,0.0,0.0,77,0.00,,,0.00,VWS V15.00,2013-06-12 02:00:00,
2013-06-11 21:03:00,68.9,63.9,29.81,WSW,255,0.0,0.0,84,0.00,,CLR,0.00,VWS V14.01,2013-06-12 02:03:00,
2013-06-11 21:08:00,68.6,63.6,29.81,WSW,255,0.0,0.0,84,0.00,,CLR,0.00,VWS V14.01,2013-06-12 02:08:00,
2013-06-11 21:13:00,68.1,63.4,29.81,WSW,255,0.0,0.0,85,0.00,,CLR,0.00,VWS V14.01,2013-06-12 02:13:00,
2013-06-11 21:15:00,73.0,64.6,29.81,WSW,255,0.0,0.0,75,0.00,,,0.00,VWS V15.00,2013-06-12 02:15:00,
2013-06-11 21:18:00,67.6,63.3,29.80,WSW,255,0.0,0.0,86,0.00,,CLR,0.00,VWS V14.01,2013-06-12 02:18:00,
2013-06-11 21:23:00,67.4,63.1,29.80,WSW,255,0.0,0.0,86,0.00,,CLR,0.00,VWS V14.01,2013-06-12 02:23:00,
2013-06-11 21:28:00,67.3,63.0,29.80,WSW,255,0.0,0.0,86,0.00,,CLR,0.00,VWS V14.01,2013-06-12 02:28:00,
2013-06-11 21:30:00,71.6,63.3,29.81,WSW,255,0.0,0.0,75,0.00,,,0.00,VWS V15.00,2013-06-12 02:30:00,
2013-06-11 21:33:00,66.9,62.6,29.81,WSW,255,0.0,0.0,86,0.00,,CLR,0.00,VWS V14.01,2013-06-12 02:33:00,
2013-06-11 21:38:00,66.6,62.3,29.81,WSW,255,0.0,0.0,86,0.00,,CLR,0.00,VWS V14.01,2013-06-12 02:38:00,
2013-06-11 21:43:00,66.4,62.4,29.81,WSW,255,0.0,0.0,87,0.00,,CLR,0.00,VWS V14.01,2013-06-12 02:43:00,
2013-06-11 21:45:00,70.3,63.5,29.81,WSW,255,0.0,0.0,79,0.00,,,0.00,VWS V15.00,2013-06-12 02:45:00,
2013-06-11 21:48:00,66.0,61.7,29.82,WSW,255,0.0,0.0,86,0.00,,CLR,0.00,VWS V14.01,2013-06-12 02:48:00,
2013-06-11 21:54:00,65.8,61.5,29.82,WSW,255,0.0,0.0,86,0.00,,CLR,0.00,VWS V14.01,2013-06-12 02:54:00,
2013-06-11 21:59:00,65.5,61.2,29.82,WSW,255,0.0,0.0,86,0.00,,CLR,0.00,VWS V14.01,2013-06-12 02:59:00,
2013-06-11 22:00:00,68.9,63.9,29.81,WSW,255,0.0,0.0,84,0.00,,,0.00,VWS V15.00,2013-06-12 03:00:00,
2013-06-11 22:04:00,65.2,60.9,29.82,WSW,255,0.0,0.0,86,0.00,,CLR,0.00,VWS V14.01,2013-06-12 03:04:00,
2013-06-11 22:09:00,64.8,60.5,29.82,WSW,255,0.0,0.0,86,0.00,,CLR,0.00,VWS V14.01,2013-06-12 03:09:00,
2013-06-11 22:14:00,64.7,60.4,29.82,WSW,255,0.0,0.0,86,0.00,,CLR,0.00,VWS V14.01,2013-06-12 03:14:00,
2013-06-11 22:15:00,67.8,63.5,29.80,WSW,255,0.0,0.0,86,0.00,,,0.00,VWS V15.00,2013-06-12 03:15:00,
2013-06-11 22:19:00,64.5,60.5,29.82,WSW,255,0.0,0.0,87,0.00,,CLR,0.00,VWS V14.01,2013-06-12 03:19:00,
2013-06-11 22:24:00,64.5,60.9,29.82,WSW,255,0.0,0.0,88,0.00,,CLR,0.00,VWS V14.01,2013-06-12 03:24:00,
2013-06-11 22:29:00,64.7,61.4,29.82,WSW,255,0.0,0.0,89,0.00,,CLR,0.00,VWS V14.01,2013-06-12 03:29:00,
2013-06-11 22:30:00,67.1,62.8,29.81,WSW,255,0.0,0.0,86,0.00,,,0.00,VWS V15.00,2013-06-12 03:30:00,
2013-06-11 22:34:00,64.7,61.4,29.82,WSW,255,0.0,0.0,89,0.00,,CLR,0.00,VWS V14.01,2013-06-12 03:34:00,
2013-06-11 22:39:00,64.7,61.7,29.82,WSW,255,0.0,0.0,90,0.00,,CLR,0.00,VWS V14.01,2013-06-12 03:39:00,
2013-06-11 22:44:00,64.5,61.5,29.82,WSW,255,0.0,0.0,90,0.00,,CLR,0.00,VWS V14.01,2013-06-12 03:44:00,
2013-06-11 22:45:00,66.1,62.1,29.82,WSW,255,0.0,0.0,87,0.00,,,0.00,VWS V15.00,2013-06-12 03:45:00,
2013-06-11 22:49:00,64.5,61.5,29.83,WSW,255,0.0,0.0,90,0.00,,CLR,0.00,VWS V14.01,2013-06-12 03:49:00,
2013-06-11 22:54:00,64.3,61.0,29.83,WSW,255,0.0,0.0,89,0.00,,CLR,0.00,VWS V14.01,2013-06-12 03:54:00,
2013-06-11 22:59:00,64.3,61.0,29.83,WSW,255,0.0,0.0,89,0.00,,CLR,0.00,VWS V14.01,2013-06-12 03:59:00,
2013-06-11 23:00:00,65.3,61.0,29.82,WSW,255,0.0,0.0,86,0.00,,,0.00,VWS V15.00,2013-06-12 04:00:00,
2013-06-11 23:01:00,64.3,61.0,29.84,WSW,255,0.0,0.0,89,0.00,,SCT120,0.00,VWS V14.01,2013-06-12 04:01:00,
2013-06-11 23:02:00,64.3,61.0,29.84,WSW,255,0.0,0.0,89,0.00,,SCT120,0.00,VWS V14.01,2013-06-12 04:02:00,
2013-06-11 23:03:00,64.3,61.0,29.84,WSW,255,0.0,0.0,89,0.00,,SCT120,0.00,VWS V14.01,2013-06-12 04:03:00,
2013-06-11 23:05:00,64.3,61.0,29.84,WSW,255,0.0,0.0,89,0.00,,SCT120,0.00,VWS V14.01,2013-06-12 04:05:00,
2013-06-11 23:11:00,64.3,61.3,29.84,WSW,255,0.0,0.0,90,0.00,,SCT120,0.00,VWS V14.01,2013-06-12 04:11:00,
2013-06-11 23:15:00,64.5,60.2,29.82,WSW,255,0.0,0.0,86,0.00,,,0.00,VWS V15.00,2013-06-12 04:15:00,
2013-06-11 23:16:00,64.0,61.3,29.84,WSW,255,0.0,4.0,91,0.00,,SCT120,0.00,VWS V14.01,2013-06-12 04:16:00,
2013-06-11 23:21:00,63.9,61.2,29.84,WSW,255,0.0,0.0,91,0.00,,SCT120,0.00,VWS V14.01,2013-06-12 04:21:00,
2013-06-11 23:26:00,63.7,61.0,29.84,WSW,255,0.0,0.0,91,0.00,,SCT120,0.00,VWS V14.01,2013-06-12 04:26:00,
2013-06-11 23:30:00,64.7,61.4,29.82,WSW,255,0.0,0.0,89,0.00,,,0.00,VWS V15.00,2013-06-12 04:30:00,
2013-06-11 23:31:00,63.4,60.7,29.84,WSW,255,0.0,0.0,91,0.00,,SCT120,0.00,VWS V14.01,2013-06-12 04:31:00,
2013-06-11 23:36:00,63.2,60.8,29.82,WSW,255,6.0,6.0,92,0.00,,SCT120,0.00,VWS V14.01,2013-06-12 04:36:00,
2013-06-11 23:41:00,63.5,61.1,29.82,WSW,255,0.0,6.0,92,0.00,,BKN120,0.00,VWS V14.01,2013-06-12 04:41:00,
2013-06-11 23:45:00,64.5,61.5,29.83,WSW,255,0.0,0.0,90,0.00,,,0.00,VWS V15.00,2013-06-12 04:45:00,
2013-06-11 23:46:00,63.5,60.8,29.82,West,265,7.0,7.0,91,0.00,,BKN120,0.00,VWS V14.01,2013-06-12 04:46:00,
2013-06-11 23:51:00,63.5,61.1,29.85,West,275,2.0,6.0,92,0.00,,BKN120,0.00,VWS V14.01,2013-06-12 04:51:00,
2013-06-11 23:56:00,63.4,61.0,29.85,West,281,4.0,7.0,92,0.00,,BKN120,0.00,VWS V14.01,2013-06-12 04:56:00,